Location: Olomouc
(49.5830°N, 17.2500°E)
Time: 03:18:32
(UTC+01:00)

ISS - Pass Details

Date: 06 October 2020
Orbit: 417 x 420 km, 51.6° (Epoch: 25 October)

Event Time Altitude Azimuth Distance (km) Brightness Sun altitude
Rises 18:45:18 0° 288° (WNW) 2,369 1.6 -5.2°
Reaches altitude 10° 18:47:29 10° 281° (W) 1,503 0.7 -5.6°
Maximum altitude 18:50:38 39° 211° (SSW) 650 -2.5 -6.1°
Drops below altitude 10° 18:53:48 10° 141° (SE) 1,497 -1.3 -6.6°
Enters shadow 18:55:38 - 134° (SE) 2,225 -0.5 -6.9°
